Home > Weather > Nassau > Past weeks

Flag for Bahamas Weather for the Past 2 Weeks in Nassau, Bahamas

Now
66 °F

Passing clouds.


Feels Like: 66 °F
Forecast: 64 / 71 °F
Wind: 5 mph from Northwest

Location: Nassau Airport

Current Time: Feb 11, 2016 at 4:54:18 AM

Latest Report: Feb 11, 2016 at 4:00 AM


Visibility: N/A

Pressure: 30.21 "Hg

Humidity: 64%

Dew point: 54 °F

Location of NassauLocation

Historic Weather in Nassau — Graph

°F

Nassau Temperature Yesterday

Maximum temperature yesterday: 73 °F (at 9:00 AM)
Minimum temperature yesterday: 64 °F (at 7:00 PM)
Average temperature yesterday: 69 °F

High & Low Weather Summary for the Past Weeks

 TemperatureHumidityPressure
High90 °F (Jan 28, 2:00 PM)100% (Jan 28, 7:00 AM)30.25 "Hg (Jan 28, 7:00 AM)
Low61 °F (Jan 31, 12:00 AM)25% (Feb 5, 12:00 PM)29.85 "Hg (Jan 28, 3:00 PM)
Average73 °F69%30.07 "Hg
* Reported Jan 27 2:00 AM — Feb 11 2:00 AM, Nassau, Weather by CustomWeather, © 2016

Note: Actual official high and low records may vary slightly from our data, if they occured in-between our weather recording intervals... More about our weather records

Advertising

Nassau Weather History for the Previous 24 Hours

 ConditionsComfort  
Time TempWeatherWind HumidityBarometerVisibility
2:00 AM
Thu, Feb 11
68 °FPassing clouds.7 mph33%30.21 "HgN/A
1:00 AM64 °FPassing clouds.6 mph60%30.22 "HgN/A
12:00 AM66 °FPassing clouds.No wind35%30.24 "HgN/A
11:00 PM
Wed, Feb 10
66 °FPassing clouds.8 mph32%30.25 "HgN/A
10:00 PM64 °FPassing clouds.7 mph64%30.24 "HgN/A
9:00 PM66 °FPassing clouds.8 mph37%30.23 "HgN/A
8:00 PM66 °FPartly cloudy.7 mph43%30.22 "HgN/A
7:00 PM64 °FPartly cloudy.6 mph68%30.21 "HgN/A
6:00 PM68 °FPassing clouds.5 mph40%30.20 "HgN/A
5:00 PM72 °FBroken clouds.6 mph31%30.19 "HgN/A
4:00 PM68 °FBroken clouds.7 mph64%30.18 "HgN/A
3:00 PM73 °FPartly sunny.10 mph29%30.17 "HgN/A
2:00 PM72 °FPartly sunny.10 mph31%30.17 "HgN/A
1:00 PM70 °FBroken clouds.10 mph64%30.19 "HgN/A
12:00 PM73 °FBroken clouds.10 mph33%30.20 "HgN/A
11:00 AM72 °FPartly sunny.12 mph38%30.21 "HgN/A
10:00 AM70 °FBroken clouds.7 mph64%30.20 "HgN/A
9:00 AM73 °FPartly sunny.7 mph38%30.19 "HgN/A
8:00 AM72 °FBroken clouds.7 mph41%30.16 "HgN/A
7:00 AM68 °FBroken clouds.6 mph73%30.15 "HgN/A
6:00 AM70 °FPartly cloudy.7 mph40%30.13 "HgN/A
5:00 AM70 °FMild.N/A40%30.11 "HgN/A
Weather by CustomWeather, © 2016

See weather overviewHow to use our weather pages